Showing default

COSMOS 2090, 20735

Orbit data source: Space-Track

COSMOS 2090, 20735 is a payload satellite owned by UNKS (CIS) in LEO that was launched on Wed, 08 Aug 1990 UTC via a TSIKLON-3 launch vehicle from the Plesetsk Missile And Space Complex (PKMTR). Payload-class satellites include a variety of spacecraft equipped with specific instruments for various scientific and technological missions. These include communications satellites like Starlink; space stations such as the ISS; scientific satellites like the Hubble; Earth observation satellites from companies like Planet Labs, Umbra, and HawkEye 360; GPS; miniature CubeSats for education and research; and military/defense satellites.

Loading next visibility...
Identifier
20735, 1990-070A
Orbit
LEO
Country
Flag of CISCIS
Related business
Manufacturer
NPO PM
Mission
Defense Communications
Bus & Motor
STRELA-3, Unknown motor
Mass
225 kg wet, 225 kg dry
Launch date (UTC)
1990-08-08 (36 years ago)
Launch vehicle
TSIKLON-3
Launch site
Plesetsk Missile And Space Complex (PKMTR)
Object type
Payload
Rocket body
Debris
Shape & HBR
Cyl, 0.8 m
Radar Cross Section
1.257 m², Large (>1 m²)

Expand to show TLE details & history
Last TLE update: 12 hours ago

TLE from 12 hours ago
0 COSMOS 2090
1 20735U 90070A   26126.44134359  .00000024  00000-0  73794-4 0  9993
2 20735  82.5637 299.0307 0014729 155.9321 231.8037 12.65365356650657
Epoch: 2026-05-06T10:35Z
TLE epoch observation values (Epoch: 2026-05-06T10:35:32.086Z)
Latitude
27.38813°
Longitude
-80.29657°
Altitude
1,411.188 km
Speed
7.154 km/s
True Right ascension
20h 11m 33s
True Declination
27° 15' 35"
Sunlit
Object was in daylight at epoch
Visualization orbit readout
Latitude
Unknown
Longitude
Unknown
Altitude
Unknown
Speed
Unknown
Apparent Right ascension
Unknown
Apparent Declination
Unknown
Sunlit
N/A
Visualization observer readout
Local Sidereal Time
06:08:52
Azimuth
Unknown
Elevation
Unknown
Doppler factor
Unknown
Orbital elements
Apogee altitude
1,409.648 km
Perigee altitude
1,386.74 km
Semi-major axis
7,776.331 km
Eccentricity
0.00147
Inclination
82.5637°
RAAN
299.0307°
Arg. of periapsis
155.9321°
True anomaly
231.67121°
Mean anomaly
231.8037°
Eccentric anomaly
231.73744°
Mean motion
3.16505 °/min
Orbital period
113.74 mins
BSTAR
0.000073794
Loading maneuver chart data...
Computing Atmospheric mass density...
Loading historical data...
Loading historical data...
Loading historical data...
Loading historical data...
Loading historical data...
Loading historical data...
Loading historical data...

Documentation

Showing up to 5 results
|